{"data":{"norad_id":62524,"intl_designator":"2025-004P","name":"STARLINK-32748","alt_names":[],"object_type":"PAYLOAD","status":"ACTIVE","operator":null,"country":"US","launch_date":"2025-01-08","launch_site_code":"AFETR","launch_vehicle":null,"mission":null,"orbit_class":"UNKNOWN","rcs_meters":null,"size_class":null,"mass_kg":null,"dimensions":null,"purposes":["comms"],"wikipedia_slug":null,"has_3d_model":false,"image_url":null,"decayed_at":null,"tle_current":{"epoch":"2026-09-21T05:08:57.038784Z","epoch_age_seconds":112789,"freshness":"FRESH","line1":"1 62524U 25004P   26264.21454906  .00011951  00000+0  44277-3 0  9994","line2":"2 62524  43.0062 195.4747 0003763 257.1968 102.8463 15.27601610 96367","mean_motion":15.2760161,"eccentricity":0.0003763,"inclination_deg":43.0062,"raan_deg":195.4747,"arg_perigee_deg":257.1968,"mean_anomaly_deg":102.8463,"bstar":0.00044277,"rev_number":9636,"period_min":94.265415182431,"perigee_km":480.40254870975,"apogee_km":485.56622866688,"semimajor_km":6861.1213886883,"source":"CELESTRAK","updated_at":"2026-09-22T09:00:49.624072Z"}}}